Preview of NWS' New Version of Forecast
This preview is not operational and should not be used for support decisions.

Regional Weather Roundup (RWR)

Issued by National Weather Service (NWS)

                            
000
ASUS43 KLSX 170357
RWRMO 

WEATHER SUMMARY FOR MISSOURI
NATIONAL WEATHER SERVICE SPRINGFIELD MO
1100 PM CDT SUN JUN 16 2019

NOTE: "FAIR" INDICATES FEW OR NO CLOUDS BELOW 12,000 FEET WITH NO
       SIGNIFICANT WEATHER AND/OR OBSTRUCTIONS TO VISIBILITY.
       CURRENT SKY AND/OR WEATHER CONDITIONS ARE NOT AVAILABLE FOR
       CHILLICOTHE AND FARMINGTON.

MOZ001>031-035>038-043-044-053-054-170500-
...NORTHERN AND WESTERN MISSOURI...
  
CITY           SKY/WX    TMP DP  RH WIND       PRES   REMARKS
KANSAS CTY INT CLEAR     75  66  73 NE9       29.89R                  
LEE'S SUMMIT   PTCLDY    72  64  76 CALM      29.88S                  
ST JOSEPH      CLEAR     73  63  70 NE3       29.89R                  
CHILLICOTHE      N/A     74  65  73 NE6       29.90R                  
     
$$
MOZ066>068-077>081-088>096-101>105-170500-
...SOUTHWEST MISSOURI...
  
CITY           SKY/WX    TMP DP  RH WIND       PRES   REMARKS
SPRINGFIELD    PTCLDY    72  64  76 E6        29.89S                  
JOPLIN         CLOUDY    70  66  87 NE5       29.88R                  
               
$$
MOZ032>034-039>042-045>050-055>058-069>072-170500-
...CENTRAL MISSOURI...  
  
CITY           SKY/WX    TMP DP  RH WIND       PRES   REMARKS
COLUMBIA       NOT AVBL                                               
ROLLA          CLEAR     67  65  93 CALM      29.92R                  
SEDALIA        CLOUDY    71  70  96 W3        29.90R                  
WARRENSBURG    CLOUDY    72  64  78 S3        29.88S                  
               
$$
MOZ051-052-059>065-170500-
...EAST CENTRAL MISSOURI...
  
CITY           SKY/WX    TMP DP  RH WIND       PRES   REMARKS
ST LOUIS INTL  MOCLDY    78  66  66 CALM      29.88S                  
                   
$$
MOZ072>076-082>087-097>100-106>115-170500-
...SOUTH CENTRAL AND SOUTHEAST MISSOURI...
  
CITY           SKY/WX    TMP DP  RH WIND       PRES   REMARKS
CAPE GIRARDEAU FAIR      72  68  87 SE3       29.90R                  
POPLAR BLUFF   FAIR      70  70 100 SE3       29.89S                  
WEST PLAINS    CLEAR     73  68  84 NE6       29.91S                  
                                       
$$